Regional Weather Roundup
Issued by NWS

Home | Current Version | Previous Version | Graphics & Text | Print | Product List | Glossary Off
Versions: 1 2 3 4 5 6 7 8 9 10 11 12 13 14 15 16 17 18 19 20 21 22 23 24 25 26 27 28 29 30 31 32 33 34 35 36 37 38 39 40 41 42 43 44 45 46 47 48 49 50

000
ASUS43 KDMX 222106
RWRIA

WEATHER ROUNDUP FOR IOWA
NATIONAL WEATHER SERVICE DES MOINES IA
400 PM CDT SAT JUL 22 2017

NOTE: "FAIR" INDICATES FEW OR NO CLOUDS BELOW 12,000 FEET WITH NO
SIGNIFICANT WEATHER AND/OR OBSTRUCTIONS TO VISIBILITY.

* - THESE STATIONS ARE NOT NWS STATIONS...THUS NOT UNDER NWS
QUALITY CONTROL.  THEY ALSO DO NOT REPORT WEATHER SUCH
AS PRECIPITATION OR FOG.

IAZ001>003-012>014-020>022-031>034-043>046-222200-
   NORTHWEST IOWA

CITY           SKY/WX    TMP DP  RH WIND       PRES   REMARKS
CARROLL *      CLOUDY    84  77  79 NE6       29.88S HX  94
CHEROKEE *     CLOUDY    85  74  69 NW9       29.90S HX  93
DENISON *      PTSUNNY   86  77  74 N9        29.90F HX  97
ORANGE CITY *  PTSUNNY   82  75  78 NW9       29.92S HX  89
SHELDON *      PTSUNNY   84  73  70 NW10      29.90F HX  91
SIOUX CITY     CLOUDY    80  74  81 NW12      29.91S HX  85
SPENCER        MOSUNNY   89  72  56 NW12      29.89S HX  96
STORM LAKE *   CLOUDY    82  73  74 NW13      29.91R HX  88
$$

IAZ055>058-069>071-079>083-090>094-222200-
   SOUTHWEST IOWA

CITY           SKY/WX    TMP DP  RH WIND       PRES   REMARKS
ATLANTIC *     MOSUNNY   90  77  66 N10       29.87R HX 102
AUDUBON *      MOSUNNY   88  79  74 N9        29.90R HX 102
CLARINDA *     SUNNY     90  81  74 N8        29.86S HX 108
COUNCIL BLFS * CLOUDY    86  79  79 N8        29.88R HX  99
CRESTON *      SUNNY     90  73  58 NE10      29.87S HX  98
HARLAN  *      PTSUNNY   88  77  70 N10       29.91S HX 100
LAMONI         MOSUNNY   96  79  57 N12       29.82R HX 114
RED OAK *      MOSUNNY   90  79  70 N9        29.86S HX 105
SHENANDOAH *   SUNNY     90  79  70 N7G16     29.85S HX 105
$$

IAZ047>049-059>061-072>074-084-222200-
   CENTRAL IOWA

CITY           SKY/WX    TMP DP  RH WIND       PRES   REMARKS
AMES           MOSUNNY   86  74  67 N9        29.85R HX  94
ANKENY *       MOSUNNY   86  75  70 VRB7      29.85R HX  95
BOONE *        PTSUNNY   84  73  70 N8        29.87R HX  91
CHARITON *     SUNNY     90  75  62 N9G17     29.82S HX 100
DES MOINES     MOSUNNY   90  73  57 N9        29.83R HX  98
GRINNELL*      CLOUDY    82  73  73 NE6       29.85S HX  87
KNOXVILLE *    MOSUNNY   86  73  66 NE9       29.82R HX  93
MARSHALLTOWN   PTSUNNY   83  74  74 N5        29.84R HX  89
NEWTON *       PTSUNNY   84  73  70 E6G12     29.84S HX  91
PELLA *        SUNNY     88  73  60 N7        29.84S HX  95
$$

IAZ004>006-015-016-023>025-035-036-222200-
   NORTH CENTRAL IOWA

CITY           SKY/WX    TMP DP  RH WIND       PRES   REMARKS
ALGONA *       PTSUNNY   84  75  74 VRB7      29.88R HX  92
ESTHERVILLE    MOSUNNY   84  74  71 NW13G18   29.88R HX  91
FORT DODGE *   MOSUNNY   84  73  70 NW7       29.89R HX  91
MASON CITY     MOSUNNY   85  72  65 N7        29.87S HX  91
FOREST CITY *  PTSUNNY   82  72  69 NW8       29.87R HX  87
WEBSTER CITY * CLOUDY    84  73  70 VRB6      29.86R HX  91
IOWA FALLS *   PTSUNNY   85  73  66 NW5       29.87R HX  92
$$

IAZ007>011-017>019-026>030-037>042-050>054-066-222200-
   NORTHEAST IOWA

CITY           SKY/WX    TMP DP  RH WIND       PRES   REMARKS
CEDAR RAPIDS   CLOUDY    82  76  81 NW5       29.81F HX  89
CHARLES CITY * CLOUDY    79  75  89 CALM      29.86R HX  82
DECORAH *      CLOUDY    81  72  74 CALM      29.83F HX  84
DUBUQUE        MOSUNNY   81  73  76 SW5       29.82F HX  86
MONTICELLO *   CLOUDY    82  73  74 CALM      29.81F HX  88
OELWEIN *        N/A    N/A N/A N/A MISG        N/A
WATERLOO       CLOUDY    81  72  74 N6        29.82S HX  85
$$

IAZ064-065-067-068-078-222200-
   EAST CENTRAL IOWA

CITY           SKY/WX    TMP DP  RH WIND       PRES   REMARKS
DAVENPORT      CLOUDY    81  74  79 W3        29.84S HX  86
IOWA CITY      CLOUDY    86  74  67 N8        29.81F HX  94
MT. PLEASANT * MOSUNNY   89  77  67 N9        29.79F HX 101
MUSCATINE *    PTSUNNY   86  77  74 N7        29.81S HX  97
QUAD CITIES    CLOUDY    85  73  67 NW6       29.80F HX  91
$$

IAZ062-063-075>077-085>089-095>099-222200-
   SOUTHEAST IOWA

CITY           SKY/WX    TMP DP  RH WIND       PRES   REMARKS
BURLINGTON     CLOUDY    88  79  74 CALM      29.79F HX 103
FAIRFIELD *    SUNNY     90  77  66 NE6       29.79F HX 102
FORT MADISON * MOSUNNY   91  81  70 CALM      29.79F HX 110
KEOKUK *       PTSUNNY   93  77  59 W9        29.78S HX 107
OSKALOOSA *      N/A     89  75  64 N7        29.81S HX  99
CENTERVILLE *    N/A     91  77  62 N8        29.82S HX 105
OTTUMWA        MOSUNNY   92  76  59 N10       29.79F HX 104
WASHINGTON *   SUNNY     88  79  74 N8        29.81S HX 102
$$

ABBREVIATIONS USED IN REMARKS
   TC - TEMPERATURES IN CELSIUS
  WCI - WIND CHILL INDEX
   HX - HEAT INDEX
  VSB - VISIBILITY
$$





USA.gov is the U.S. government's official web portal to all federal, state and local government web resources and services.